| time (UTC) | temp F | wind direction | speed MPH | gust MPH | rain 1hr in | rain 24hr in | rain mn in | humidity % | barometer mb |
| 20260506043017 | 56 | 192 | 14.0 | 26.0 | 0.00 | 0.00 | 0.00 | 88 | 1012.8 |
| 20260506041514 | 56 | 210 | 12.0 | 32.0 | 0.00 | 0.00 | 0.00 | 88 | 1012.8 |
| 20260506040014 | 57 | 235 | 12.0 | 25.0 | 0.00 | 0.00 | 0.00 | 87 | 1012.8 |
| 20260506034511 | 57 | 212 | 15.0 | 25.0 | 0.00 | 0.00 | 0.00 | 86 | 1012.8 |
| 20260506033008 | 57 | 189 | 15.0 | 28.0 | 0.00 | 0.00 | 0.00 | 86 | 1012.8 |
| 20260506031513 | 57 | 171 | 14.0 | 23.0 | 0.00 | 0.00 | 0.00 | 86 | 1012.7 |
| 20260506030007 | 57 | 210 | 13.0 | 23.0 | 0.00 | 0.00 | 0.00 | 86 | 1012.9 |
| 20260506024504 | 57 | 174 | 14.0 | 25.0 | 0.00 | 0.00 | 0.00 | 86 | 1013.0 |
| 20260506023002 | 57 | 195 | 12.0 | 25.0 | 0.00 | 0.00 | 0.00 | 86 | 1012.9 |
| 20260506021502 | 57 | 194 | 12.0 | 24.0 | 0.00 | 0.00 | 0.00 | 87 | 1013.1 |
| 20260506020100 | 57 | 237 | 11.0 | 25.0 | 0.00 | 0.00 | 0.00 | 86 | 1012.9 |
| 20260506014602 | 58 | 179 | 15.0 | 27.0 | 0.00 | 0.00 | 0.00 | 85 | 1012.9 |
| 20260506013101 | 58 | 198 | 15.0 | 25.0 | 0.00 | 0.00 | 0.00 | 84 | 1012.7 |
| 20260506011559 | 58 | 192 | 17.0 | 29.0 | 0.00 | 0.00 | 0.00 | 84 | 1012.6 |
| 20260506010059 | 59 | 189 | 14.0 | 24.0 | 0.00 | 0.00 | 0.00 | 83 | 1012.6 |
| 20260506004625 | 59 | 206 | 14.0 | 26.0 | 0.00 | 0.00 | 0.00 | 82 | 1012.5 |
| 20260506003056 | 59 | 184 | 16.0 | 24.0 | 0.00 | 0.00 | 0.00 | 82 | 1012.4 |
| 20260506001553 | 60 | 232 | 17.0 | 25.0 | 0.00 | 0.00 | 0.00 | 81 | 1012.1 |
| 20260506000053 | 59 | 200 | 17.0 | 26.0 | 0.00 | 0.00 | 0.00 | 82 | 1011.9 |
| 20260505234612 | 59 | 185 | 16.0 | 31.0 | 0.00 | 0.00 | 0.00 | 82 | 1011.5 |
| 20260505233051 | 60 | 186 | 17.0 | 32.0 | 0.00 | 0.00 | 0.00 | 82 | 1011.3 |
| 20260505231551 | 59 | 225 | 17.0 | 33.0 | 0.00 | 0.00 | 0.00 | 82 | 1011.2 |
| 20260505230051 | 60 | 202 | 15.0 | 28.0 | 0.00 | 0.00 | 0.00 | 82 | 1010.9 |
| 20260505224549 | 60 | 191 | 16.0 | 31.0 | 0.00 | 0.00 | 0.00 | 81 | 1010.8 |
| 20260505223059 | 60 | 185 | 19.0 | 30.0 | 0.00 | 0.00 | 0.00 | 82 | 1010.7 |
| 20260505221558 | 60 | 179 | 13.0 | 32.0 | 0.00 | 0.00 | 0.00 | 81 | 1010.8 |
| 20260505220057 | 60 | 206 | 16.0 | 32.0 | 0.00 | 0.00 | 0.00 | 80 | 1010.6 |
| 20260505214603 | 60 | 203 | 17.0 | 31.0 | 0.00 | 0.00 | 0.00 | 80 | 1010.6 |
| 20260505213047 | 61 | 201 | 15.0 | 26.0 | 0.00 | 0.00 | 0.00 | 80 | 1010.4 |
| 20260505211544 | 61 | 218 | 15.0 | 27.0 | 0.00 | 0.00 | 0.00 | 80 | 1010.2 |
| 20260505210044 | 60 | 200 | 18.0 | 29.0 | 0.00 | 0.00 | 0.00 | 80 | 1010.2 |
| 20260505204544 | 60 | 186 | 15.0 | 25.0 | 0.00 | 0.00 | 0.00 | 81 | 1010.2 |
| 20260505203044 | 60 | 198 | 16.0 | 28.0 | 0.00 | 0.00 | 0.00 | 81 | 1010.2 |
| 20260505201540 | 60 | 187 | 15.0 | 28.0 | 0.00 | 0.00 | 0.00 | 81 | 1010.4 |
| 20260505200045 | 60 | 206 | 12.0 | 26.0 | 0.00 | 0.00 | 0.00 | 81 | 1010.5 |
| 20260505194539 | 61 | 184 | 14.0 | 23.0 | 0.00 | 0.00 | 0.00 | 81 | 1010.6 |
| 20260505193036 | 61 | 184 | 12.0 | 21.0 | 0.00 | 0.00 | 0.00 | 81 | 1011.0 |
| 20260505191535 | 61 | 186 | 10.0 | 23.0 | 0.00 | 0.00 | 0.00 | 80 | 1011.1 |
| 20260505190037 | 61 | 226 | 15.0 | 23.0 | 0.00 | 0.00 | 0.00 | 80 | 1011.3 |
| 20260505184532 | 61 | 181 | 12.0 | 20.0 | 0.00 | 0.00 | 0.00 | 81 | 1011.7 |
| 20260505183042 | 61 | 235 | 8.0 | 19.0 | 0.00 | 0.00 | 0.00 | 80 | 1011.9 |
| 20260505181529 | 62 | 237 | 7.0 | 13.0 | 0.00 | 0.00 | 0.00 | 80 | 1012.1 |
| 20260505180029 | 63 | 231 | 5.0 | 11.0 | 0.00 | 0.00 | 0.00 | 78 | 1012.3 |
| 20260505174526 | 62 | 212 | 5.0 | 10.0 | 0.00 | 0.00 | 0.00 | 80 | 1012.5 |
| 20260505173024 | 61 | 180 | 6.0 | 14.0 | 0.00 | 0.00 | 0.00 | 81 | 1012.5 |
| 20260505171524 | 61 | 189 | 6.0 | 14.0 | 0.00 | 0.00 | 0.00 | 81 | 1012.6 |
| 20260505170024 | 60 | 230 | 4.0 | 16.0 | 0.00 | 0.00 | 0.00 | 84 | 1012.7 |
| 20260505164523 | 60 | 196 | 8.0 | 15.0 | 0.00 | 0.00 | 0.00 | 81 | 1012.9 |
| 20260505163021 | 60 | 192 | 6.0 | 10.0 | 0.00 | 0.00 | 0.00 | 82 | 1012.9 |
| 20260505161620 | 61 | 182 | 7.0 | 15.0 | 0.00 | 0.00 | 0.00 | 81 | 1013.0 |
| 20260505153018 | 61 | 183 | 4.0 | 9.0 | 0.00 | 0.00 | 0.00 | 82 | 1013.2 |
| 20260505151516 | 60 | 214 | 7.0 | 12.0 | 0.00 | 0.00 | 0.00 | 83 | 1013.5 |
| 20260505124604 | 57 | 196 | 6.0 | 10.0 | 0.00 | 0.00 | 0.00 | 90 | 1013.2 |
| 20260505123057 | 56 | 215 | 5.0 | 11.0 | 0.00 | 0.00 | 0.00 | 90 | 1013.2 |
| 20260505121555 | 56 | 195 | 5.0 | 10.0 | 0.00 | 0.00 | 0.00 | 91 | 1013.0 |
| 20260505120058 | 55 | 195 | 4.0 | 9.0 | 0.00 | 0.00 | 0.00 | 91 | 1013.2 |
| 20260505114552 | 55 | 213 | 5.0 | 8.0 | 0.00 | 0.00 | 0.00 | 92 | 1013.3 |
| 20260505113054 | 55 | 194 | 2.0 | 6.0 | 0.00 | 0.00 | 0.00 | 92 | 1013.2 |
| 20260505111550 | 55 | 202 | 3.0 | 9.0 | 0.00 | 0.00 | 0.00 | 93 | 1013.2 |
| 20260505101545 | 53 | 186 | 4.0 | 10.0 | 0.00 | 0.00 | 0.00 | 93 | 1012.3 |
| 20260505100042 | 53 | 203 | 3.0 | 10.0 | 0.00 | 0.00 | 0.00 | 93 | 1012.1 |
| 20260505094542 | 53 | 179 | 4.0 | 9.0 | 0.00 | 0.00 | 0.00 | 93 | 1012.1 |
| 20260505093040 | 53 | 194 | 3.0 | 8.0 | 0.00 | 0.00 | 0.00 | 93 | 1012.1 |
| 20260505091539 | 53 | 185 | 4.0 | 7.0 | 0.00 | 0.00 | 0.00 | 93 | 1012.1 |
| 20260505090038 | 53 | 234 | 3.0 | 8.0 | 0.00 | 0.00 | 0.00 | 92 | 1012.0 |
| 20260505084544 | 53 | 194 | 3.0 | 8.0 | 0.00 | 0.00 | 0.00 | 92 | 1012.0 |
| 20260505083036 | 53 | 204 | 5.0 | 9.0 | 0.00 | 0.00 | 0.00 | 92 | 1012.1 |
| 20260505081533 | 53 | 214 | 5.0 | 9.0 | 0.00 | 0.00 | 0.00 | 92 | 1012.2 |
| 20260505080035 | 53 | 202 | 5.0 | 10.0 | 0.00 | 0.00 | 0.00 | 91 | 1012.2 |
| 20260505074534 | 53 | 195 | 5.0 | 10.0 | 0.00 | 0.00 | 0.00 | 91 | 1012.2 |
| 20260505073038 | 53 | 196 | 4.0 | 8.0 | 0.00 | 0.00 | 0.00 | 91 | 1012.2 |
| 20260505071526 | 53 | 198 | 5.0 | 10.0 | 0.00 | 0.00 | 0.00 | 91 | 1012.2 |
| 20260505070036 | 53 | 208 | 8.0 | 11.0 | 0.00 | 0.00 | 0.00 | 91 | 1012.1 |
| 20260505064521 | 53 | 217 | 7.0 | 12.0 | 0.00 | 0.00 | 0.00 | 91 | 1012.2 |
| 20260505063016 | 53 | 213 | 6.0 | 9.0 | 0.00 | 0.00 | 0.00 | 91 | 1012.3 |
| 20260505061520 | 53 | 200 | 5.0 | 10.0 | 0.00 | 0.00 | 0.00 | 91 | 1012.4 |
| 20260505060013 | 53 | 212 | 4.0 | 10.0 | 0.00 | 0.00 | 0.00 | 91 | 1012.6 |
| 20260505054511 | 53 | 236 | 3.0 | 7.0 | 0.00 | 0.00 | 0.00 | 90 | 1012.7 |
| 20260505053008 | 53 | 210 | 4.0 | 9.0 | 0.00 | 0.00 | 0.00 | 90 | 1012.7 |
| 20260505051510 | 53 | 250 | 3.0 | 10.0 | 0.00 | 0.00 | 0.00 | 90 | 1012.8 |